User: anonymous   Login
Location: ???? ?????
(30.0052°N, 31.2891°E)
Time: 08:30:41
(UTC+00:00)
Language:

Cosmos 2058 Rocket - Orbit

View from above orbital plane
View from above orbital plane
View from above satellite
View from above satellite

Ground track
Ground track

The orbit data is extracted from the following two-line orbital elements,

1 20466U 90010B   22222.58677107  .00000225  00000-0  25673-4 0  9995
2 20466  82.5009  52.8750 0018962 282.3671  77.5421 14.81570227734823
Epoch (UTC): 10 August 2022 14:04:57
Eccentricity: 0.0018962
inclination: 82.5009°
perigee height: 611 km
apogee height: 637 km
right ascension of ascending node: 52.8750°
argument of perigee: 282.3671°
revolutions per day: 14.81570227
mean anomaly at epoch: 77.5421°
orbit number at epoch: 73482

The dashed part of the orbit path shows where the satellite is in the earth's shadow,  

DLR